Temperature
15 15 15 14 14 14 14 14 14 15 14 13 13 13 13 13 13 13 13 14 14 14 14 14 14 14 14 14 14 15 15 15 15 15 15 15 15 15
15 14 14 14 14 14 14 14 14 14 14 13 13 13 13 13 13 13 13 13 14 14 14 14 14 14 14 14 14 14 14 14 14 14 14 14 15 15
14 14 14 14 14 14 14 14 14 14 14 13 13 13 13 13 13 13 13 13 13 13 13 13 13 13 13 13 13 14 14 14 14 14 14 14 14 14
14 14 14 14 14 14 14 14 14 13 13 13 12 12 12 13 13 12 12 12 12 13 13 13 13 13 13 13 13 13 13 13 13 13 13 13 14 13
14 14 14 14 14 14 14 13 13 13 13 13 13 12 12 12 12 12 12 12 12 12 12 13 12 12 12 12 12 12 12 12 13 13 13 13 13 13
14 14 14 14 13 13 13 13 13 13 13 13 12 12 12 12 12 12 12 12 12 12 12 12 12 12 12 12 12 12 12 12 12 12 12 12 12 12
14 14 14 14 14 14 13 13 13 13 13 12 12 12 12 12 12 12 12 11 11 11 11 11 11 11 11 11 11 11 11 11 11 11 11 12 12 12
14 14 13 14 14 14 14 13 13 13 12 12 12 12 12 12 12 11 11 11 11 11 11 11 11 11 11 10 11 11 11 11 11 11 11 11 11 11
14 13 13 14 13 13 13 13 13 13 13 12 12 12 12 11 11 11 11 11 11 11 11 10 10 10 10 10 11 11 11 11 11 11 11 11 11 11
14 13 13 13 13 13 13 13 12 13 13 12 12 12 12 11 11 11 11 10 10 10 10 10 10 10 10 10 10 10 10 10 10 10 10 10 10 10
14 13 13 13 13 13 13 12 12 12 12 12 12 12 12 12 11 11 10 10 10 10 10 9 10 9 9 9 9 10 10 10 10 10 10 10 10 10
14 13 13 13 13 13 13 12 12 12 12 12 12 12 11 11 11 11 10 10 10 9 9 9 9 9 9 9 9 9 9 9 9 9 9 9 9 9
13 13 13 13 13 13 12 12 12 12 11 11 11 11 11 11 11 10 10 10 9 9 9 9 8 8 8 8 8 8 8 8 8 8 8 8 8 8
13 13 13 13 13 13 12 12 12 12 11 11 11 10 10 10 10 10 10 10 9 9 9 8 8 8 8 8 8 8 8 8 7 7 7 7 7 7
13 13 13 13 12 12 12 12 12 11 11 10 10 10 10 10 10 10 9 9 9 9 9 8 8 8 7 7 7 7 7 7 7 7 7 7 7 6
13 13 13 12 12 12 12 11 11 11 11 10 10 10 10 10 9 9 9 8 8 8 8 8 8 8 7 7 7 7 7 6 6 6 6 6 6 6
13 13 12 12 12 12 11 11 11 11 11 10 10 10 9 9 9 9 8 8 8 8 7 7 7 7 7 7 6 6 6 6 6 6 5 5 5 5
13 12 12 12 12 12 11 11 11 11 10 10 10 9 9 9 8 8 8 8 8 7 7 7 7 6 6 6 6 6 6 5 5 5 5 5 5 5
12 12 12 12 12 11 11 11 11 10 10 10 9 9 9 8 8 8 8 7 7 7 7 6 6 6 6 6 6 6 5 5 4 4 4 4 4 4
12 12 12 11 11 11 11 10 10 10 10 9 9 9 8 8 8 8 7 7 7 6 6 6 6 5 5 5 5 5 5 4 4 4 4 3 3 3
12 12 11 11 11 10 10 10 10 10 9 9 9 8 8 8 7 7 7 6 6 6 6 6 5 5 5 4 4 4 4 4 3 3 3 3 3 3
11 11 11 11 10 10 10 10 9 9 9 9 8 8 8 7 7 7 6 6 6 5 5 5 5 4 4 4 3 3 3 3 3 3 3 3 2 2
10 10 10 10 10 10 9 9 9 8 8 8 8 7 7 7 6 6 6 5 5 5 4 4 4 4 3 3 3 3 3 3 3 3 3 2 2 2
Wind_Speed
5 5 4 4 3 3 2 1 1 2 3 3 3 5 5 6 7 7 9 12 12 13 13 13 14 14 14 14 14 14 14 13 13 12 11 11 9 8
4 5 4 4 3 3 2 2 1 1 2 3 3 3 5 5 6 7 7 9 12 12 12 12 12 13 13 13 14 14 14 13 13 13 12 12 11 10
5 5 5 4 3 3 2 2 2 2 3 3 3 3 4 5 5 5 5 6 9 11 12 11 11 11 11 12 13 13 13 13 12 12 12 11 11 11
5 5 5 4 4 3 2 3 3 3 3 3 3 3 4 4 4 4 5 6 7 10 10 11 11 10 10 10 11 12 12 12 11 11 10 10 9 9
4 4 4 4 3 3 3 3 3 3 2 2 3 2 2 3 2 3 4 4 5 6 7 9 9 10 10 10 10 10 10 10 10 9 9 9 9 9
4 3 3 3 3 3 3 3 2 3 2 2 2 2 2 2 2 2 2 3 3 4 5 4 5 6 7 7 8 9 9 9 9 8 8 8 8 8
3 3 4 5 6 4 2 2 2 2 2 1 1 1 1 1 2 2 2 2 2 3 3 3 3 3 4 4 5 7 7 7 8 8 8 8 8 8
3 3 4 4 4 4 4 5 4 1 1 0 0 1 2 2 2 2 2 2 2 2 3 3 3 3 3 4 5 5 5 6 6 7 7 7 8 8
2 2 2 2 3 3 5 5 2 3 3 3 2 2 2 2 2 2 2 3 3 3 4 3 3 3 3 3 3 3 4 5 6 6 7 7 8 9
2 2 2 2 2 1 2 2 1 1 1 1 2 2 2 2 3 3 3 3 2 1 2 3 3 4 4 3 1 1 2 4 5 6 7 8 9 10
3 2 2 3 4 1 2 2 2 1 3 2 3 2 3 3 4 3 3 3 3 2 2 3 4 5 5 3 2 2 3 5 6 7 8 9 11 12
4 4 2 2 3 3 4 3 3 2 2 3 3 4 3 1 2 3 3 4 4 3 2 3 4 5 4 3 4 5 5 6 7 8 8 9 10 11
5 4 4 6 4 4 5 3 2 2 2 2 2 2 2 1 2 2 3 3 4 4 3 3 5 5 5 6 6 6 7 7 8 8 8 8 9 10
5 4 4 8 6 5 4 2 2 4 3 3 3 3 3 2 2 3 3 4 5 5 5 5 5 6 7 8 7 7 7 8 8 8 9 8 9 11
4 2 4 7 7 6 6 5 6 5 4 4 4 4 3 3 3 3 4 5 6 6 6 7 6 6 7 8 8 8 9 8 8 8 9 9 9 9
6 5 6 6 6 4 5 6 6 5 5 5 5 4 4 4 4 4 4 4 5 5 6 7 7 7 8 9 9 9 9 8 8 9 9 10 11 11
6 5 6 6 6 6 6 6 6 6 6 6 6 6 5 5 5 5 5 6 7 7 6 5 7 8 9 9 9 9 9 9 9 9 10 11 11 11
6 6 7 7 7 7 7 7 7 7 7 7 6 6 6 6 6 6 6 7 7 7 7 6 6 7 8 8 8 10 10 10 10 10 11 12 13 12
7 7 7 7 7 7 7 7 7 7 7 7 7 7 7 7 7 7 7 7 8 8 8 7 7 8 10 11 8 7 9 10 11 11 11 12 13 13
8 8 8 7 7 7 7 7 7 7 7 7 7 7 7 8 8 8 8 9 9 9 9 8 8 8 10 12 12 10 10 11 11 12 13 13 13 14
8 8 8 7 7 7 7 7 8 7 8 7 7 8 8 8 8 9 9 9 9 10 10 10 8 8 9 10 11 12 11 11 13 13 14 14 14 14
7 7 7 7 7 7 7 7 8 8 8 8 8 8 8 8 9 10 9 9 9 10 11 10 8 8 9 11 13 14 14 13 13 17 19 18 13 14
6 6 5 5 6 6 6 7 9 8 8 8 8 8 8 8 8 8 9 9 9 10 10 10 9 9 10 11 13 13 16 15 13 12 13 16 20 24
Wind_Direction
83 86 80 80 79 79 80 59 79 116 92 62 53 42 42 48 31 46 54 52 48 47 46 47 47 47 48 50 50 51 51 52 55 55 54 54 56 59
79 84 82 88 83 81 69 53 34 69 89 71 62 53 44 54 45 50 61 67 57 50 47 48 49 49 51 53 54 51 50 50 51 52 51 49 48 48
96 93 87 82 90 84 78 78 67 74 102 96 86 74 66 56 51 48 50 56 62 54 48 47 49 50 52 54 54 53 50 49 49 49 47 44 40 36
92 95 94 93 85 77 71 80 83 86 105 106 95 71 59 53 49 48 52 55 61 63 53 50 50 51 53 53 52 51 48 45 44 43 40 37 33 29
92 93 94 99 99 93 86 83 84 86 93 106 85 68 60 50 48 50 58 50 56 68 65 60 55 53 53 52 52 50 47 44 41 39 35 30 23 17
100 94 86 89 91 102 101 95 95 97 93 93 87 84 69 40 26 28 36 36 30 36 41 51 65 67 65 59 54 48 43 38 33 29 25 20 15 8
117 106 86 65 44 45 58 91 109 116 112 96 84 73 57 31 12 351 0 355 30 14 358 9 17 28 42 62 57 43 33 28 24 20 15 10 5 358
135 128 123 120 111 100 62 39 19 24 47 49 2 13 10 11 352 328 335 326 339 5 334 349 349 355 2 15 43 37 24 18 13 7 1 355 351 345
160 149 134 130 161 147 143 156 108 50 354 318 323 339 332 346 321 317 331 329 328 343 324 323 338 339 344 7 49 22 11 8 0 352 344 339 335 330
186 183 178 171 152 172 168 160 129 90 33 298 319 338 342 339 314 308 310 296 291 307 315 307 324 320 320 325 42 337 328 334 340 337 333 330 326 321
194 198 208 190 122 211 214 199 190 155 107 89 37 22 13 348 311 278 284 286 299 313 332 305 311 315 305 292 277 232 273 288 303 311 315 318 317 311
197 200 185 227 149 215 220 220 228 224 203 176 187 201 224 196 230 273 293 289 299 304 341 310 304 312 302 294 302 294 284 280 280 284 290 299 307 309
205 207 191 171 192 220 249 240 247 268 236 238 242 243 251 265 257 267 287 287 288 289 314 304 297 299 295 296 297 298 300 301 296 288 279 282 293 296
216 212 184 164 185 208 222 194 202 245 243 245 250 256 261 266 276 282 276 273 276 281 287 287 287 292 293 293 296 299 298 298 298 299 300 292 281 273
224 174 158 168 186 203 204 211 218 231 238 245 252 257 263 271 273 270 268 268 270 271 272 272 276 283 285 288 294 298 300 298 295 296 299 300 299 297
218 185 178 188 210 224 210 212 226 236 242 248 255 257 256 253 254 259 263 265 269 269 265 267 271 276 278 283 288 291 294 295 298 299 299 297 295 292
200 203 210 211 215 220 226 228 230 229 231 239 246 250 250 251 255 257 263 268 270 276 278 271 271 272 273 278 281 284 290 292 294 298 298 295 292 291
193 216 221 224 228 230 232 231 230 232 236 239 242 247 251 255 258 254 254 262 270 275 279 282 283 281 276 268 253 277 286 291 294 295 292 292 292 293
210 227 230 231 233 234 235 237 238 237 236 237 241 247 251 255 258 260 260 263 268 274 277 279 279 281 286 289 282 243 278 290 291 290 289 289 290 293
226 233 235 236 237 239 239 239 241 240 237 238 241 246 250 255 259 261 262 265 271 275 276 273 272 275 280 290 294 288 261 275 285 288 291 291 289 289
226 234 238 240 241 242 243 242 242 242 242 240 243 246 251 255 259 262 266 266 268 272 274 275 277 272 276 282 281 282 283 266 267 278 289 291 291 292
234 236 238 240 242 243 244 243 243 243 244 244 247 249 252 255 259 262 266 268 267 269 274 278 278 272 270 273 280 287 290 291 278 264 262 265 278 286
243 243 244 244 244 245 246 246 248 250 249 250 252 253 255 257 261 264 266 266 269 273 276 278 278 275 273 274 279 284 288 292 293 291 282 270 262 266
Height
1576 1576 1576 1576 1576 1576 1577 1578 1579 1578 1579 1578 1577 1576 1575 1574 1573 1572 1571 1570 1568 1567 1566 1564 1563 1562 1560 1559 1558 1557 1556 1555 1555 1554 1554 1554 1553 1554
1576 1577 1577 1577 1577 1577 1577 1578 1578 1579 1579 1579 1578 1577 1575 1575 1573 1573 1572 1571 1569 1568 1567 1565 1564 1563 1561 1560 1559 1558 1557 1556 1556 1555 1555 1554 1554 1554
1578 1578 1578 1578 1578 1578 1578 1578 1578 1579 1579 1579 1578 1577 1576 1576 1575 1574 1573 1572 1570 1569 1567 1566 1565 1563 1562 1561 1560 1559 1558 1557 1556 1555 1555 1554 1554 1554
1579 1579 1579 1579 1579 1579 1579 1579 1579 1579 1579 1579 1579 1578 1577 1576 1575 1574 1574 1573 1571 1569 1568 1566 1565 1564 1563 1562 1560 1559 1558 1557 1556 1555 1555 1554 1553 1553
1581 1581 1580 1580 1580 1580 1580 1580 1580 1579 1580 1580 1580 1578 1578 1576 1575 1575 1574 1573 1572 1570 1568 1567 1565 1564 1563 1561 1560 1559 1558 1557 1556 1555 1554 1553 1552 1551
1581 1581 1581 1581 1581 1581 1580 1580 1580 1580 1580 1580 1580 1579 1578 1577 1576 1575 1574 1573 1572 1570 1569 1567 1565 1564 1563 1561 1560 1559 1558 1557 1555 1554 1553 1552 1550 1549
1582 1582 1581 1581 1580 1580 1581 1581 1581 1581 1581 1580 1580 1579 1578 1577 1576 1575 1574 1573 1572 1570 1569 1567 1566 1564 1563 1561 1559 1558 1556 1555 1554 1553 1551 1550 1548 1547
1582 1582 1581 1581 1580 1580 1580 1580 1581 1581 1581 1580 1580 1579 1578 1577 1575 1575 1574 1573 1572 1570 1569 1567 1566 1564 1562 1560 1558 1556 1555 1553 1552 1550 1549 1547 1546 1544
1583 1582 1581 1580 1580 1580 1580 1580 1580 1579 1580 1579 1579 1578 1577 1576 1575 1574 1573 1572 1571 1569 1567 1566 1565 1563 1561 1559 1556 1554 1553 1551 1549 1548 1546 1544 1542 1540
1581 1581 1581 1580 1580 1580 1580 1580 1579 1579 1578 1578 1577 1576 1575 1574 1573 1573 1571 1570 1569 1568 1566 1565 1563 1561 1559 1557 1554 1552 1551 1549 1547 1545 1543 1541 1538 1536
1580 1580 1580 1579 1579 1579 1579 1579 1578 1577 1576 1576 1575 1574 1573 1572 1571 1571 1570 1569 1568 1567 1565 1563 1561 1559 1556 1554 1552 1549 1548 1546 1544 1541 1539 1537 1535 1532
1578 1578 1578 1578 1577 1577 1577 1577 1577 1576 1575 1574 1573 1572 1571 1570 1569 1569 1568 1567 1566 1565 1563 1561 1559 1557 1554 1553 1550 1547 1545 1542 1540 1538 1535 1533 1530 1527
1576 1575 1575 1575 1575 1575 1575 1575 1574 1574 1573 1572 1572 1571 1570 1569 1567 1566 1565 1564 1564 1562 1560 1558 1556 1555 1553 1550 1547 1545 1542 1540 1537 1534 1532 1529 1526 1524
1573 1573 1573 1573 1573 1572 1572 1572 1572 1571 1571 1570 1569 1568 1567 1566 1565 1564 1562 1561 1560 1559 1557 1555 1553 1551 1549 1546 1544 1542 1539 1536 1533 1530 1528 1525 1522 1519
1570 1570 1570 1570 1569 1569 1569 1569 1569 1568 1568 1567 1567 1566 1564 1563 1562 1560 1559 1558 1556 1554 1553 1551 1550 1548 1546 1543 1540 1538 1535 1532 1529 1526 1523 1521 1517 1514
1566 1566 1566 1566 1566 1566 1565 1565 1565 1564 1564 1564 1563 1562 1561 1560 1558 1557 1556 1554 1553 1551 1549 1548 1546 1544 1541 1538 1536 1533 1531 1528 1525 1522 1519 1515 1512 1509
1562 1562 1562 1562 1562 1562 1561 1561 1561 1561 1560 1559 1559 1558 1557 1556 1555 1554 1552 1551 1550 1548 1546 1543 1541 1539 1537 1534 1531 1529 1526 1523 1520 1517 1513 1509 1506 1504
1558 1558 1557 1558 1557 1557 1557 1557 1557 1556 1556 1555 1555 1554 1553 1552 1551 1550 1548 1547 1545 1544 1542 1540 1537 1534 1532 1529 1527 1524 1521 1518 1515 1512 1508 1504 1500 1497
1553 1553 1553 1553 1553 1553 1552 1552 1552 1552 1551 1550 1550 1549 1548 1547 1546 1545 1544 1542 1541 1539 1537 1535 1533 1530 1527 1524 1521 1519 1516 1512 1509 1505 1502 1498 1494 1490
1548 1548 1548 1548 1548 1548 1547 1547 1547 1546 1546 1545 1545 1544 1543 1542 1541 1540 1538 1537 1535 1533 1531 1529 1527 1525 1522 1519 1515 1512 1510 1507 1503 1499 1495 1491 1487 1483
1543 1543 1543 1542 1542 1542 1542 1541 1541 1541 1540 1540 1539 1538 1537 1536 1535 1534 1532 1531 1529 1527 1525 1523 1521 1518 1515 1512 1509 1505 1504 1501 1497 1493 1489 1485 1480 1476
1537 1537 1537 1537 1537 1536 1536 1536 1535 1535 1534 1534 1533 1532 1531 1530 1529 1527 1526 1524 1522 1520 1518 1516 1514 1511 1509 1506 1502 1499 1496 1493 1490 1486 1482 1479 1475 1469
1532 1531 1531 1531 1530 1530 1530 1530 1529 1529 1528 1527 1527 1526 1525 1523 1522 1521 1519 1517 1516 1514 1512 1509 1507 1504 1502 1499 1495 1492 1488 1485 1482 1478 1475 1472 1468 1464